[[{"header":{"parameterUnit":"m.s-1","parameterCategory":1,"la1":30.2991,"la2":30.254,"lo1":-89.0895,"lo2":-89.0444,"dy":0.0017,"dx":0.0017,"nx":28,"ny":28,"refTime":"2024-02-09T03:00:00:Z","depth":0,"parameterNumber":2,"parameterNumberName":"U-component_of_WINDS"},"data":[0,0,0,0,0,0,0,0,0,0,0,0,0,0,0,0,0,0,0,0,0,0,0,0,0,0,0,0,0,0,0,0,0,0,0,0,0,0,0,0,0,0,0,0,0,0,0,0,0,0,0,0,0,0,0,0,0,0,-1.7222,-1.7223,0,-1.7244,-1.7244,-1.7244,-1.7238,-1.7238,-1.7238,-1.7237,-1.7258,-1.7258,-1.7259,0,0,0,0,0,0,0,0,0,0,0,0,0,-1.7174,-1.7175,-1.7222,-1.7223,-1.7223,-1.7244,-1.7244,-1.7244,-1.7239,-1.7238,-1.7238,-1.7237,-1.7257,-1.7258,-1.7259,0,0,0,0,0,0,0,0,0,0,0,0,0,-1.7195,-1.7175,-1.7222,-1.7223,-1.7223,-1.7244,-1.7244,-1.7244,-1.7239,-1.7238,-1.7237,-1.7237,-1.7257,-1.7258,-1.726,-1.7281,0,0,-1.7264,-1.7264,0,0,0,0,0,0,0,0,-1.7194,-1.7197,-1.7222,-1.7223,-1.7223,-1.7238,-1.7234,-1.7257,-1.7239,-1.7233,-1.7237,-1.7236,-1.7251,-1.7253,-1.7259,-1.7282,-1.7283,-1.7264,-1.7265,-1.7265,-1.7266,0,0,0,0,0,0,0,-1.7193,-1.7196,-1.7231,-1.7223,-1.7223,-1.7221,-1.7223,-1.7239,-1.7245,-1.7233,-1.7233,-1.7235,-1.7251,-1.7257,-1.7259,-1.7283,-1.7264,-1.7265,-1.7266,-1.7267,-1.7323,-1.7324,0,0,0,0,0,0,-1.7191,-1.7195,-1.723,-1.7231,-1.7207,-1.7222,-1.7225,-1.7234,-1.7245,-1.7246,-1.7236,-1.7235,-1.7255,-1.7257,-1.726,-1.7284,-1.7265,-1.7267,-1.7268,-1.7322,-1.7323,-1.7324,0,0,0,0,0,0,-1.719,-1.7194,-1.7229,-1.7213,-1.7217,-1.7224,-1.7234,-1.7234,-1.724,-1.7247,-1.7248,-1.7241,-1.7255,-1.7258,-1.7275,-1.7285,-1.7267,-1.7269,-1.7322,-1.7323,-1.7323,-1.7333,0,0,0,0,0,0,-1.7189,-1.7194,-1.7203,-1.7213,-1.7218,-1.7245,-1.7234,-1.7235,-1.7243,-1.7242,-1.7252,-1.7253,-1.7254,-1.7273,-1.7277,-1.7286,-1.727,-1.7321,-1.7322,-1.7323,-1.7332,-1.7335,-1.7337,0,0,0,0,0,-1.7187,-1.7205,-1.7203,-1.7208,-1.723,-1.7246,-1.7249,-1.725,-1.7244,-1.7252,-1.7256,-1.7253,-1.7283,-1.7275,-1.7279,-1.7289,-1.732,-1.7322,-1.7323,-1.7331,-1.7334,-1.7337,0,0,0,0,0,0,-1.7195,-1.7206,-1.7205,-1.7227,-1.7236,-1.7245,-1.7256,-1.7254,-1.7264,-1.7263,-1.7264,-1.7266,-1.7284,-1.7288,-1.7279,-1.7309,-1.7301,-1.7303,-1.7306,-1.7308,-1.731,-1.7308,-1.7271,0,0,0,0,0,-1.72,-1.7213,-1.7222,-1.724,-1.7245,-1.7249,-1.7257,-1.7257,-1.7266,-1.7269,-1.7275,-1.7283,-1.7294,-1.7302,-1.7313,-1.7333,-1.7334,-1.7342,-1.7344,-1.7346,-1.7347,-1.7357,-1.736,-1.7329,-1.7329,-1.7329,0,0,-1.7209,-1.7217,-1.7225,-1.7242,-1.7249,-1.7261,-1.7253,-1.7267,-1.7275,-1.7271,-1.7288,-1.7292,-1.7302,-1.732,-1.7329,-1.7325,-1.7356,-1.7348,-1.7349,-1.735,-1.7358,-1.7361,-1.7364,-1.733,-1.7329,-1.7329,0,0,-1.7231,-1.7239,-1.7255,-1.7262,-1.7272,-1.7275,-1.7279,-1.7288,-1.7291,-1.7308,-1.7305,-1.7315,-1.7335,-1.7341,-1.7347,-1.737,-1.7367,-1.7374,-1.7385,-1.7394,-1.7396,-1.7398,-1.7405,-1.7408,-1.7376,-1.7376,-1.7376,0,-1.7241,-1.7261,-1.7263,-1.7277,-1.7283,-1.7281,-1.7295,-1.7302,-1.7315,-1.7319,-1.7315,-1.7339,-1.7345,-1.7364,-1.7369,-1.7375,-1.7378,-1.7372,-1.7396,-1.7398,-1.74,-1.7406,-1.7409,-1.7376,-1.7376,-1.7376,-1.7376,0,-1.7271,-1.7284,-1.7295,-1.7308,-1.7316,-1.7331,-1.7334,-1.7342,-1.7341,-1.7345,-1.7361,-1.7368,-1.7379,-1.7384,-1.7384,-1.7403,-1.74,-1.7396,-1.7387,-1.7404,-1.7409,-1.7412,-1.7377,-1.7377,-1.7377,-1.7377,0,0,-1.7299,-1.7312,-1.7316,-1.7321,-1.7332,-1.7342,-1.7356,-1.7367,-1.7373,-1.7382,-1.7392,-1.7409,-1.7404,-1.7411,-1.7411,-1.742,-1.7436,-1.7414,-1.7414,-1.7416,-1.7455,-1.7457,-1.746,-1.7434,-1.7434,-1.7435,-1.7453,0,-1.7321,-1.7345,-1.7347,-1.7369,-1.738,-1.7377,-1.7389,-1.7396,-1.7399,-1.7408,-1.7412,-1.7422,-1.7417,-1.7421,-1.7429,-1.7432,-1.7443,-1.7431,-1.7442,-1.7442,-1.7439,-1.7463,-1.7466,-1.7483,-1.7456,-1.7456,-1.7457,0,-1.735,-1.736,-1.7382,-1.739,-1.7395,-1.7405,-1.7415,-1.7425,-1.7433,-1.7434,-1.7441,-1.744,-1.7452,-1.7444,-1.746,-1.7452,-1.7457,-1.7459,-1.746,-1.746,-1.745,-1.7463,-1.7489,-1.7491,-1.7461,-1.7461,-1.746,0,-1.7366,-1.7385,-1.74,-1.7405,-1.7415,-1.7422,-1.7427,-1.7434,-1.744,-1.7449,-1.7452,-1.7462,-1.7467,-1.7475,-1.7476,-1.747,-1.7492,-1.7484,-1.7492,-1.7492,-1.7496,-1.7495,-1.7522,-1.7501,-1.7501,-1.7501,-1.7501,0,-1.739,-1.7403,-1.7407,-1.7417,-1.7431,-1.7433,-1.7447,-1.7451,-1.7457,-1.7466,-1.7465,-1.7473,-1.7475,-1.7484,-1.7485,-1.7497,-1.75,-1.7501,-1.7501,-1.75,-1.75,-1.7502,-1.7501,-1.7502,-1.7502,-1.7502,-1.7502,0,-1.7409,-1.7413,-1.7429,-1.7437,-1.744,-1.745,-1.7456,-1.7465,-1.7468,-1.7479,-1.7482,-1.7486,-1.7496,-1.7498,-1.751,-1.7511,-1.7525,-1.7525,-1.7523,-1.7522,-1.753,-1.7529,-1.7558,-1.7561,-1.754,-1.754,-1.754,0,-1.7423,-1.7433,-1.7443,-1.7449,-1.7453,-1.7464,-1.747,-1.7472,-1.7478,-1.7487,-1.7494,-1.7504,-1.7512,-1.7528,-1.7531,-1.754,-1.7539,-1.7549,-1.754,-1.7539,-1.7537,-1.7536,-1.7536,-1.755,-1.755,-1.755,-1.755,0,-1.7447,-1.7448,-1.7458,-1.7467,-1.7475,-1.7483,-1.749,-1.7495,-1.7498,-1.7505,-1.7515,-1.7521,-1.7533,-1.7543,-1.7551,-1.7555,-1.7553,-1.7553,-1.7555,-1.7554,-1.7552,-1.7552,-1.7525,-1.7552,-1.7552,-1.7552,-1.7552,-1.7552,-1.7463,-1.7471,-1.7479,-1.7489,-1.7495,-1.7502,-1.7509,-1.7513,-1.7522,-1.7532,-1.7532,-1.7543,-1.755,-1.7561,-1.7565,-1.7573,-1.757,-1.7573,-1.7574,-1.7574,-1.7574,-1.7552,-1.7575,-1.7575,-1.7575,-1.7575,-1.7575,0,-1.7485,-1.749,-1.75,-1.751,-1.7517,-1.7515,-1.7523,-1.7529,-1.7539,-1.7546,-1.7553,-1.7564,-1.7573,-1.7577,-1.7586,-1.7591,-1.759,-1.7593,-1.7592,-1.7593,-1.7577,-1.7574,-1.7594,-1.7594,-1.7594,-1.7594,-1.7594,-1.7594,-1.7498,-1.7511,-1.7513,-1.7529,-1.7533,-1.7544,-1.7549,-1.7554,-1.7559,-1.7572,-1.7579,-1.7582,-1.7587,-1.7596,-1.7604,-1.7605,-1.7607,-1.761,-1.7611,-1.7596,-1.7594,-1.7592,-1.7589,-1.7611,-1.7611,-1.7625,-1.7625,-1.7625]},{"header":{"parameterUnit":"m.s-1","parameterCategory":1,"la1":30.2991,"la2":30.254,"lo1":-89.0895,"lo2":-89.0444,"dy":0.0017,"dx":0.0017,"nx":28,"ny":28,"refTime":"2024-02-09T03:00:00:Z","depth":0,"parameterNumber":3,"parameterNumberName":"V-component_of_WINDS"},"data":[0,0,0,0,0,0,0,0,0,0,0,0,0,0,0,0,0,0,0,0,0,0,0,0,0,0,0,0,0,0,0,0,0,0,0,0,0,0,0,0,0,0,0,0,0,0,0,0,0,0,0,0,0,0,0,0,0,0,2.5767,2.5768,0,2.5894,2.5895,2.5896,2.5992,2.5992,2.5993,2.5994,2.612,2.6123,2.6125,0,0,0,0,0,0,0,0,0,0,0,0,0,2.5607,2.5609,2.5767,2.5768,2.577,2.5893,2.5895,2.5897,2.5991,2.5992,2.5993,2.5994,2.6119,2.6122,2.6125,0,0,0,0,0,0,0,0,0,0,0,0,0,2.5699,2.561,2.5767,2.5832,2.5839,2.5893,2.5895,2.5897,2.5991,2.5992,2.5994,2.5995,2.6118,2.6122,2.6126,2.6123,0,0,2.6137,2.6139,0,0,0,0,0,0,0,0,2.5694,2.5705,2.5821,2.5828,2.5836,2.5928,2.5885,2.5973,2.5991,2.5933,2.5994,2.5996,2.6055,2.6064,2.6085,2.6129,2.6135,2.6138,2.614,2.6142,2.6143,0,0,0,0,0,0,0,2.5687,2.57,2.5817,2.5823,2.5832,2.5855,2.587,2.5902,2.5985,2.5938,2.5946,2.596,2.6059,2.6081,2.6088,2.6136,2.6138,2.6141,2.6143,2.6145,2.6191,2.619,0,0,0,0,0,0,2.5671,2.5694,2.5813,2.5821,2.5767,2.5857,2.5873,2.5897,2.5985,2.6,2.5958,2.5964,2.6074,2.6084,2.6093,2.61,2.6142,2.6145,2.6147,2.6192,2.619,2.6189,0,0,0,0,0,0,2.5667,2.5681,2.5808,2.576,2.5778,2.5859,2.5884,2.5899,2.5921,2.6,2.6015,2.5965,2.6075,2.6088,2.6117,2.6106,2.6147,2.615,2.6193,2.6191,2.619,2.6111,0,0,0,0,0,0,2.5662,2.5679,2.5678,2.5759,2.578,2.5829,2.5884,2.59,2.5928,2.5936,2.6011,2.6024,2.6077,2.611,2.612,2.6112,2.6153,2.6194,2.6192,2.619,2.6115,2.6106,2.61,0,0,0,0,0,2.5656,2.5649,2.5678,2.5691,2.5781,2.5828,2.584,2.5902,2.5926,2.5927,2.5979,2.6022,2.6105,2.6113,2.6125,2.6117,2.6195,2.6193,2.619,2.6118,2.6108,2.61,0,0,0,0,0,0,2.5562,2.5661,2.5693,2.5712,2.5761,2.5844,2.5846,2.5888,2.593,2.5936,2.601,2.6026,2.6048,2.6085,2.6092,2.6122,2.6156,2.6156,2.6097,2.6088,2.608,2.6072,2.6157,0,0,0,0,0,2.5544,2.5575,2.5659,2.5667,2.569,2.5764,2.5786,2.5831,2.5884,2.5904,2.5958,2.6007,2.6046,2.6068,2.6107,2.612,2.614,2.6121,2.6114,2.6107,2.6106,2.6121,2.6114,2.6181,2.6181,2.6181,0,0,2.5507,2.5564,2.5578,2.565,2.5693,2.5724,2.5781,2.5809,2.5833,2.5908,2.594,2.5981,2.6042,2.6064,2.6076,2.6095,2.6093,2.6104,2.6098,2.6101,2.6117,2.6111,2.6105,2.618,2.618,2.618,0,0,2.5454,2.5499,2.5514,2.5557,2.5623,2.5673,2.5676,2.5753,2.5784,2.5818,2.5877,2.5906,2.5968,2.601,2.6039,2.6008,2.605,2.6018,2.5979,2.5992,2.5987,2.5982,2.5974,2.597,2.6017,2.6017,2.6017,0,2.5399,2.5448,2.5515,2.5543,2.5574,2.5646,2.5662,2.57,2.5774,2.5794,2.5815,2.5899,2.5944,2.5979,2.5972,2.5992,2.6,2.601,2.5982,2.5978,2.5975,2.5969,2.5965,2.6013,2.6013,2.6013,2.6014,0,2.5378,2.5411,2.5415,2.5488,2.5519,2.554,2.5612,2.5636,2.5678,2.5726,2.5761,2.5818,2.5872,2.5883,2.5923,2.5925,2.5936,2.5968,2.6004,2.5964,2.5959,2.5956,2.6007,2.6008,2.6009,2.601,0,0,2.5268,2.5382,2.5382,2.5418,2.5498,2.5525,2.555,2.5605,2.5626,2.5675,2.57,2.5753,2.5785,2.5818,2.5864,2.5875,2.5851,2.5907,2.591,2.5897,2.5861,2.5838,2.5833,2.5879,2.5879,2.5879,2.5857,0,2.523,2.5281,2.5345,2.5375,2.5408,2.5479,2.5502,2.5554,2.56,2.5635,2.5686,2.5724,2.5761,2.5783,2.5797,2.5851,2.5845,2.5853,2.5904,2.5905,2.5889,2.583,2.5805,2.5781,2.5855,2.5855,2.5854,0,2.5192,2.5242,2.5275,2.5356,2.5372,2.5392,2.5449,2.5481,2.5543,2.5576,2.5615,2.5666,2.5698,2.573,2.5776,2.578,2.5806,2.5835,2.5836,2.5844,2.5878,2.5839,2.5774,2.5772,2.5851,2.5851,2.5852,0,2.5113,2.5187,2.5218,2.5246,2.534,2.5353,2.5393,2.5456,2.5486,2.5536,2.5557,2.5609,2.5638,2.5678,2.5742,2.5758,2.5783,2.5819,2.5812,2.5811,2.5815,2.5814,2.5756,2.5827,2.5827,2.5827,2.5827,0,2.5065,2.5083,2.5185,2.5203,2.5227,2.5301,2.5322,2.5368,2.5424,2.5455,2.5518,2.5545,2.5627,2.5664,2.5714,2.5747,2.5758,2.5787,2.5801,2.5783,2.5779,2.5801,2.5805,2.5827,2.5827,2.5827,2.5827,0,2.498,2.5049,2.5088,2.5175,2.5198,2.5212,2.5287,2.5309,2.536,2.5398,2.5411,2.5491,2.5538,2.5606,2.5672,2.5706,2.5733,2.5753,2.5713,2.5721,2.5712,2.5713,2.5667,2.5666,2.5736,2.5735,2.5734,0,2.4946,2.4963,2.5053,2.5079,2.5118,2.5157,2.519,2.5264,2.5295,2.5368,2.5382,2.5435,2.5481,2.5553,2.5617,2.567,2.5693,2.5674,2.5702,2.5685,2.5697,2.5696,2.5699,2.5667,2.5666,2.5665,2.5664,0,2.488,2.4914,2.4958,2.5016,2.5053,2.5102,2.5153,2.517,2.5255,2.5287,2.5338,2.5374,2.5445,2.5497,2.5559,2.5601,2.5648,2.5656,2.5658,2.564,2.5617,2.5633,2.5697,2.5656,2.5657,2.5658,2.5658,2.5658,2.4821,2.4841,2.4909,2.4958,2.5005,2.5053,2.5079,2.5135,2.5178,2.5243,2.5284,2.5333,2.5398,2.5486,2.5526,2.5566,2.5585,2.5587,2.5588,2.5588,2.5583,2.561,2.5577,2.5578,2.5578,2.5578,2.5578,0,2.4761,2.4809,2.4853,2.4925,2.4964,2.5006,2.5066,2.5096,2.5139,2.5195,2.5241,2.5301,2.5353,2.5423,2.548,2.5499,2.5522,2.5512,2.5512,2.5522,2.5561,2.5555,2.5493,2.5493,2.5493,2.5493,2.5493,2.5493,2.4734,2.4771,2.4813,2.4875,2.4923,2.4973,2.5004,2.5049,2.5096,2.516,2.5204,2.525,2.5313,2.5377,2.5427,2.5446,2.5466,2.5449,2.5475,2.5511,2.5518,2.5526,2.5521,2.5452,2.5452,2.5433,2.5433,2.5433]}]]